Stations météo

réclame
Mon MeteoGroup
Trier-Petrisberg, Allemagne (10609): Température de l'air & dewpoint: 17.07.2019 01:00:00 - 23.07.2019 01:00:00 (CEST)Trier-Petrisberg, Allemagne (10609): Température de l'air 5cm & Température de l'air -5cm: 17.07.2019 01:00:00 - 23.07.2019 01:00:00 (CEST)Trier-Petrisberg, Allemagne (10609): Température de l'air -20cm & Température de l'air -100cm: 17.07.2019 01:00:00 - 23.07.2019 01:00:00 (CEST)Trier-Petrisberg, Allemagne (10609): Vitesse du vent & gusts: 17.07.2019 01:00:00 - 23.07.2019 01:00:00 (CEST)Trier-Petrisberg, Allemagne (10609): Direction du vent: 17.07.2019 01:00:00 - 23.07.2019 01:00:00 (CEST)Trier-Petrisberg, Allemagne (10609): reduced air pressure: 17.07.2019 01:00:00 - 23.07.2019 01:00:00 (CEST)Trier-Petrisberg, Allemagne (10609): visibility: 17.07.2019 01:00:00 - 23.07.2019 01:00:00 (CEST)Trier-Petrisberg, Allemagne (10609): Ensoleillement: 17.07.2019 01:00:00 - 23.07.2019 01:00:00 (CEST)Trier-Petrisberg, Allemagne (10609): Quantités de précipitations: 17.07.2019 01:00:00 - 23.07.2019 01:00:00 (CEST)
Date & Time tt [°C] td [°C] tt 5cm [°C] tt -5cm [°C] tt -20cm [°C] tt -100cm [°C] ff [km/h] ff [knt] fx [km/h] fx [knt] dd ppp [hPa] vv [km] sd [min] rr [mm]
23.07.2019 01:00:00 - - - - - - - - - - - - - - -
23.07.2019 00:00:00 20,5 11,7 18,0 26,8 27,9 21,6 7 4 9 5 E 1022,7 70 0 0,0
22.07.2019 23:00:00 21,2 11,4 18,9 28,4 28,2 21,6 4 2 10 5 E 1022,6 70 0 0,0
22.07.2019 22:00:00 22,8 12,0 20,9 30,4 28,4 21,5 8 4 9 5 ESE 1022,3 70 14 0,0
22.07.2019 21:00:00 26,0 10,9 25,1 32,9 28,4 21,5 7 4 10 5 N 1021,7 70 60 0,0
22.07.2019 20:00:00 28,2 9,4 30,5 34,7 28,2 21,5 5 3 12 6 N 1021,6 70 60 0,0
22.07.2019 19:00:00 28,3 10,4 31,4 35,8 27,8 21,5 5 3 12 7 N 1021,7 70 60 0,0
22.07.2019 18:00:00 28,4 11,0 32,4 36,4 27,3 21,5 5 3 15 8 S 1022,0 70 60 0,0
22.07.2019 17:00:00 27,8 9,6 33,6 35,9 26,7 21,5 5 3 15 8 WNW 1022,4 70 52 0,0
22.07.2019 16:00:00 27,5 9,4 32,9 35,8 26,1 21,5 7 4 17 9 WSW 1022,7 70 57 0,0
22.07.2019 15:00:00 27,2 10,5 31,6 34,6 25,4 21,5 8 4 16 8 WSW 1023,2 70 55 0,0
22.07.2019 14:00:00 26,8 10,7 32,0 34,1 24,6 21,5 9 5 18 10 W 1023,6 70 60 0,0
22.07.2019 13:00:00 25,8 10,0 31,2 32,2 23,9 21,5 8 5 22 12 WNW 1024,0 70 60 0,0
22.07.2019 12:00:00 25,8 12,8 29,8 29,3 23,4 21,5 4 2 16 9 S 1024,1 70 60 0,0
22.07.2019 11:00:00 24,7 12,2 27,8 25,8 23,2 21,5 5 3 9 5 SW 1024,2 70 60 0,0
22.07.2019 10:00:00 21,5 13,8 23,6 22,8 23,2 21,5 4 2 8 4 S 1024,4 70 60 0,0
22.07.2019 09:00:00 18,4 13,0 19,4 20,5 23,4 21,5 2 1 6 3 S 1024,8 70 60 0,0
22.07.2019 08:00:00 16,1 12,5 14,8 19,6 23,7 21,5 0 0 5 3 N 1024,9 70 60 0,0
22.07.2019 07:00:00 13,4 12,0 12,5 19,6 24,1 21,4 3 1 7 4 NW 1024,7 58 24 0,0
22.07.2019 06:00:00 13,4 11,6 11,9 20,2 24,5 21,4 3 1 5 3 S 1024,6 63 0 0,0
22.07.2019 05:00:00 13,9 11,5 12,4 20,9 24,9 21,4 4 2 6 4 S 1024,5 70 0 0,0
22.07.2019 04:00:00 15,0 11,9 13,0 21,6 25,3 21,3 4 2 6 3 WNW 1024,2 70 0 0,0
22.07.2019 03:00:00 15,7 11,8 14,1 22,3 25,7 21,3 2 1 7 4 NE 1024,1 70 0 0,0
22.07.2019 02:00:00 16,8 12,3 14,6 23,1 26,1 21,3 5 3 5 3 WNW 1023,8 70 0 0,0
22.07.2019 01:00:00 17,6 11,7 15,2 24,1 26,6 21,3 3 1 11 6 WSW 1023,8 70 0 0,0
22.07.2019 00:00:00 18,8 11,7 16,4 25,2 27,0 21,2 5 3 9 5 WNW 1023,3 70 0 0,0
21.07.2019 23:00:00 19,2 11,3 17,4 26,6 27,3 21,2 4 2 9 5 S 1023,2 70 0 0,0
21.07.2019 22:00:00 21,7 10,8 18,7 28,4 27,6 21,2 6 3 13 7 SW 1022,5 70 2 0,0
21.07.2019 21:00:00 23,6 10,6 22,4 30,4 27,7 21,2 9 5 19 10 WSW 1021,7 70 40 0,0
21.07.2019 20:00:00 25,5 10,2 27,4 32,1 27,6 21,2 11 6 22 12 WSW 1021,1 70 17 0,0
21.07.2019 19:00:00 25,5 10,1 27,0 34,0 27,3 21,2 10 5 24 13 WSW 1020,9 70 57 0,0
21.07.2019 18:00:00 26,5 11,0 29,8 34,9 26,9 21,2 13 7 28 15 SW 1020,9 70 55 0,0
21.07.2019 17:00:00 25,9 10,5 29,2 35,3 26,4 21,2 13 7 32 17 WSW 1020,9 70 50 0,0
21.07.2019 16:00:00 25,3 9,9 28,0 35,3 25,8 21,2 16 9 32 18 W 1021,1 70 35 0,0
21.07.2019 15:00:00 25,6 10,4 30,0 35,4 25,0 21,2 14 8 34 19 W 1021,0 70 56 0,0
21.07.2019 14:00:00 25,8 10,9 31,1 32,9 24,3 21,2 15 8 38 20 WSW 1020,9 70 57 0,0
21.07.2019 13:00:00 25,8 12,0 30,9 30,6 23,8 21,2 18 10 33 18 SW 1020,8 70 53 0,0
21.07.2019 12:00:00 23,9 11,7 28,1 28,9 23,3 21,2 15 8 32 18 SW 1020,8 70 58 0,0
21.07.2019 11:00:00 23,2 13,1 26,3 26,5 23,1 21,2 18 10 34 19 SW 1020,6 69 60 0,0
21.07.2019 10:00:00 21,5 13,3 24,1 24,0 23,0 21,1 16 8 26 14 SW 1020,3 68 60 0,0
21.07.2019 09:00:00 21,0 13,7 22,1 22,0 23,1 21,1 13 7 19 10 SSW 1020,1 70 60 0,0
21.07.2019 08:00:00 19,1 13,7 18,8 21,3 23,3 21,1 9 5 21 11 WSW 1019,9 70 8 0,0
21.07.2019 07:00:00 18,5 14,7 18,3 21,2 23,5 21,1 4 2 8 5 S 1019,2 70 0 0,0
21.07.2019 06:00:00 18,2 14,7 18,1 21,3 23,7 21,1 6 4 10 5 SSW 1018,5 70 0 0,0
21.07.2019 05:00:00 18,3 14,6 17,8 21,5 24,0 21,0 5 3 12 6 SSW 1017,9 70 0 0,0
21.07.2019 04:00:00 18,8 14,5 18,0 21,7 24,3 21,0 6 4 14 8 SSW 1017,3 70 0 0,0
21.07.2019 03:00:00 19,0 14,6 18,0 22,2 24,6 21,0 4 2 14 8 S 1016,9 70 0 0,0
21.07.2019 02:00:00 19,7 14,4 17,7 22,9 24,9 21,0 9 5 12 7 SW 1016,6 70 0 0,0
21.07.2019 01:00:00 20,1 14,9 17,7 23,7 25,3 21,0 8 4 17 9 SSW 1016,0 70 0 0,0
21.07.2019 00:00:00 21,3 15,0 19,7 24,6 25,6 21,0 8 5 16 9 SW 1015,6 70 0 0,0
20.07.2019 23:00:00 22,7 14,5 21,1 25,7 25,8 21,0 7 4 23 12 WNW 1014,7 70 0 0,0
20.07.2019 22:00:00 24,5 14,0 23,2 27,0 26,0 21,0 13 7 33 18 WSW 1013,9 70 17 0,0
20.07.2019 21:00:00 26,0 12,9 25,6 28,3 26,1 21,0 18 10 31 17 WSW 1012,7 70 3 0,0
20.07.2019 20:00:00 26,8 13,0 26,6 29,8 26,0 21,0 20 11 40 22 WSW 1011,7 70 0 0,0
20.07.2019 19:00:00 27,7 12,5 28,0 31,3 25,8 21,0 22 12 43 23 WSW 1011,0 70 2 0,0
20.07.2019 18:00:00 28,4 13,0 29,7 32,7 25,4 21,0 23 12 48 26 SW 1010,7 70 14 0,0
20.07.2019 17:00:00 29,4 13,4 33,0 34,0 24,8 21,0 29 15 57 31 SSW 1010,5 70 43 0,0
20.07.2019 16:00:00 29,4 12,9 33,0 33,5 24,1 21,0 27 15 46 25 SSW 1010,4 70 40 0,0
20.07.2019 15:00:00 29,6 13,6 33,2 32,6 23,4 21,1 25 14 44 24 SSW 1010,6 70 44 0,0
20.07.2019 14:00:00 28,2 14,5 30,5 31,5 22,7 21,1 24 13 40 21 SSW 1010,9 70 50 0,0
20.07.2019 13:00:00 28,6 14,9 32,3 27,7 22,2 21,1 19 10 32 17 S 1010,9 70 35 0,0
20.07.2019 12:00:00 25,7 15,0 27,4 25,9 21,8 21,1 18 10 31 17 S 1011,7 70 26 0,0
20.07.2019 11:00:00 25,5 15,8 27,5 23,6 21,5 21,1 11 6 18 10 S 1011,5 70 41 0,0
20.07.2019 10:00:00 20,8 14,6 22,6 21,6 21,4 21,1 6 3 9 5 W 1012,1 70 46 0,0
20.07.2019 09:00:00 19,7 13,9 20,8 19,3 21,6 21,1 0 0 5 3 N 1012,4 70 56 0,0
20.07.2019 08:00:00 17,5 14,7 15,7 18,4 21,8 21,1 2 1 5 3 N 1012,6 50 60 0,0
20.07.2019 07:00:00 15,1 13,8 14,3 18,3 22,1 21,1 2 1 7 4 NNE 1013,1 49 39 0,0
20.07.2019 06:00:00 15,4 13,5 14,3 18,5 22,3 21,1 5 3 11 6 NNE 1012,9 61 0 0,0
20.07.2019 05:00:00 15,6 13,8 14,0 18,9 22,7 21,1 6 3 10 5 NE 1013,2 59 0 0,0
20.07.2019 04:00:00 16,0 13,6 14,4 19,3 23,0 21,1 4 2 11 6 NE 1013,7 70 0 0,0
20.07.2019 03:00:00 16,4 13,9 14,9 19,8 23,3 21,1 4 2 10 6 E 1014,0 70 0 0,0
20.07.2019 02:00:00 17,1 14,0 14,7 20,4 23,6 21,1 3 2 8 4 NNE 1014,3 70 0 0,0
20.07.2019 01:00:00 17,7 14,1 15,4 21,2 24,0 21,0 4 2 8 4 E 1014,6 70 0 0,0
20.07.2019 00:00:00 17,7 14,3 16,0 22,0 24,3 21,0 6 3 11 6 ESE 1014,6 70 0 0,0
19.07.2019 23:00:00 18,6 14,5 17,0 23,0 24,6 21,0 7 4 11 6 E 1014,6 70 0 0,0
19.07.2019 22:00:00 19,6 14,6 18,0 24,4 24,8 21,0 6 3 8 4 E 1014,5 70 0 0,0
19.07.2019 21:00:00 21,2 14,3 20,6 25,9 24,8 21,0 5 3 15 8 S 1014,2 70 0 0,0
19.07.2019 20:00:00 22,4 13,9 22,8 27,1 24,8 21,0 11 6 16 9 S 1014,2 70 18 0,0
19.07.2019 19:00:00 22,8 13,5 24,3 27,9 24,7 21,1 10 6 21 12 SSW 1014,3 70 40 0,0
19.07.2019 18:00:00 22,9 13,0 25,0 27,9 24,6 21,1 13 7 23 12 WSW 1014,5 70 6 0,0
19.07.2019 17:00:00 22,9 13,4 24,5 28,8 24,4 21,1 13 7 26 14 SW 1014,7 70 7 0,0
19.07.2019 16:00:00 23,5 13,1 26,2 29,4 24,0 21,1 16 8 29 16 SW 1014,9 70 30 0,0
19.07.2019 15:00:00 22,5 12,4 25,0 29,1 23,6 21,1 16 8 31 17 WSW 1015,2 70 28 0,0
19.07.2019 14:00:00 22,9 12,9 26,5 28,9 23,2 21,1 16 9 33 18 WSW 1015,1 70 48 0,0
19.07.2019 13:00:00 22,1 14,6 23,3 27,7 22,8 21,1 18 10 31 17 SW 1015,3 70 43 0,0
19.07.2019 12:00:00 21,0 15,1 21,9 25,7 22,5 21,1 19 10 32 17 SSW 1015,5 70 32 0,0
19.07.2019 11:00:00 19,9 15,8 20,9 23,1 22,4 21,1 16 9 25 13 SSW 1015,6 70 10 0,0
19.07.2019 10:00:00 18,2 16,6 19,0 21,4 22,5 21,1 13 7 19 10 SSW 1015,5 46 0 0,0
19.07.2019 09:00:00 16,8 15,8 17,6 20,5 22,6 21,1 6 4 11 6 S 1015,2 17 0 0,0
19.07.2019 08:00:00 15,9 15,3 16,2 20,1 22,9 21,1 5 3 8 5 S 1015,1 20 0 0,0
19.07.2019 07:00:00 15,4 14,9 15,8 20,2 23,1 21,0 5 3 12 6 ESE 1014,9 6 0 1,3
19.07.2019 06:00:00 15,5 14,9 15,9 20,6 23,4 21,0 6 3 13 7 SSE 1015,1 4,2 0 1,9
19.07.2019 05:00:00 16,4 14,0 15,9 21,0 23,6 21,0 6 3 11 6 SW 1014,6 44 0 0,7
19.07.2019 04:00:00 16,8 14,2 16,6 21,4 23,9 21,0 6 4 8 5 W 1014,2 38 0 0,0
19.07.2019 03:00:00 16,9 13,9 16,8 21,8 24,1 21,0 5 3 6 4 SSE 1013,8 51 0 0,0
19.07.2019 02:00:00 17,2 13,4 16,2 22,3 24,4 20,9 2 1 8 4 NW 1013,8 57 0 0,1
19.07.2019 01:00:00 18,7 12,3 18,1 22,9 24,7 20,9 5 3 7 4 SSW 1013,7 70 0 0,0
19.07.2019 00:00:00 18,9 12,2 18,2 23,4 25,0 20,9 4 2 10 5 S 1013,5 70 0 0,0
18.07.2019 23:00:00 19,5 12,4 18,1 24,2 25,2 20,9 6 3 13 7 SSW 1013,3 70 0 0,0
18.07.2019 22:00:00 20,3 11,9 19,1 25,2 25,4 20,9 10 5 16 8 SSW 1012,9 70 0 0,0
18.07.2019 21:00:00 20,9 11,9 20,8 26,3 25,6 20,9 10 5 21 12 SSW 1012,4 70 0 0,0
18.07.2019 20:00:00 22,1 12,2 22,5 27,2 25,7 20,9 11 6 21 11 SSW 1012,1 70 0 0,0
18.07.2019 19:00:00 22,4 12,4 23,3 28,0 25,7 20,9 10 6 20 11 SW 1012,0 70 0 0,0
18.07.2019 18:00:00 21,8 12,0 22,8 28,7 25,7 20,9 6 4 27 15 SW 1012,2 70 0 0,0
18.07.2019 17:00:00 23,1 10,6 24,4 30,1 25,5 20,8 10 5 26 14 W 1011,9 70 0 0,0
18.07.2019 16:00:00 23,5 11,2 23,9 31,5 25,1 20,8 9 5 34 18 WNW 1011,5 70 4 0,0
18.07.2019 15:00:00 25,4 8,7 27,1 32,7 24,5 20,8 12 7 24 13 W 1011,2 70 15 0,0
18.07.2019 14:00:00 26,5 10,7 30,8 32,6 23,8 20,8 13 7 27 15 SSW 1011,3 70 40 0,0
18.07.2019 13:00:00 26,6 10,3 31,9 30,5 23,2 20,8 13 7 22 12 SSW 1011,5 70 60 0,0
18.07.2019 12:00:00 23,9 10,7 27,6 27,7 22,8 20,8 10 5 19 10 SW 1012,1 66 56 0,0
18.07.2019 11:00:00 20,9 12,8 22,7 24,8 22,6 20,8 5 3 11 6 S 1012,5 45 36 0,0
18.07.2019 10:00:00 18,6 11,3 22,0 22,5 22,7 20,7 6 3 9 5 W 1012,7 35 60 0,0
18.07.2019 09:00:00 16,5 11,8 17,8 20,3 22,9 20,7 3 2 7 4 S 1013,0 28 60 0,0
18.07.2019 08:00:00 14,8 11,4 14,8 19,9 23,2 20,7 2 1 6 3 NW 1012,9 26 31 0,0
18.07.2019 07:00:00 13,1 11,0 13,0 19,9 23,5 20,7 3 2 9 5 NE 1013,0 26 0 0,0
18.07.2019 06:00:00 13,5 11,2 13,1 20,3 23,9 20,6 6 4 11 6 N 1013,0 24 0 0,0
18.07.2019 05:00:00 13,9 11,5 13,4 20,9 24,2 20,6 6 4 11 6 N 1012,9 25 0 0,0
18.07.2019 04:00:00 14,5 11,4 14,0 21,5 24,6 20,5 9 5 20 11 NNE 1013,2 29 0 0,0
18.07.2019 03:00:00 15,4 11,4 14,8 22,1 25,0 20,5 10 6 14 8 NNE 1013,5 34 0 0,0
18.07.2019 02:00:00 15,8 11,2 14,6 23,0 25,4 20,5 10 5 15 8 NNE 1013,4 37 0 0,0
18.07.2019 01:00:00 16,6 11,3 15,8 23,9 25,9 20,5 10 6 16 9 NNE 1013,5 38 0 0,0
18.07.2019 00:00:00 17,3 11,3 16,3 25,1 26,3 20,4 9 5 21 12 NNE 1013,4 38 0 0,0
17.07.2019 23:00:00 18,5 11,5 17,9 26,6 26,6 20,4 14 8 27 14 NNE 1013,1 34 0 0,0
17.07.2019 22:00:00 20,1 11,5 19,2 28,6 26,8 20,4 13 7 34 18 NNE 1012,7 35 0 0,0
17.07.2019 21:00:00 22,0 11,1 21,8 31,1 26,8 20,4 20 11 29 16 NNE 1011,9 37 33 0,0
17.07.2019 20:00:00 25,3 7,8 26,8 33,3 26,6 20,4 8 4 14 8 WSW 1011,4 70 60 0,0
17.07.2019 19:00:00 25,6 7,6 28,4 35,1 26,1 20,4 6 4 13 7 S 1011,5 70 60 0,0
17.07.2019 18:00:00 25,9 7,1 29,9 36,1 25,5 20,4 5 3 17 9 WSW 1012,0 70 60 0,0
17.07.2019 17:00:00 26,0 6,7 32,9 36,2 24,7 20,4 6 4 31 17 N 1012,4 70 60 0,0
17.07.2019 16:00:00 25,2 9,1 31,4 35,4 23,8 20,4 9 5 18 10 NW 1012,9 57 60 0,0
17.07.2019 15:00:00 24,2 9,6 31,0 33,8 22,9 20,4 7 4 16 9 NNE 1013,3 53 58 0,0
17.07.2019 14:00:00 23,7 9,5 30,5 32,1 22,1 20,4 5 3 14 8 SE 1013,7 61 60 0,0
17.07.2019 13:00:00 21,4 10,7 27,2 29,0 21,4 20,4 5 3 15 8 SW 1014,4 41 60 0,0
17.07.2019 12:00:00 20,5 10,3 24,7 25,9 21,0 20,4 6 3 16 8 NW 1014,8 35 60 0,0
17.07.2019 11:00:00 19,1 11,5 22,0 22,8 20,7 20,4 8 4 19 10 N 1015,2 27 60 0,0
17.07.2019 10:00:00 16,8 10,8 18,9 20,0 20,7 20,4 9 5 16 9 NNE 1015,6 23 60 0,0
17.07.2019 09:00:00 14,8 10,4 16,0 17,8 20,9 20,3 6 4 11 6 N 1015,7 20 60 0,0
17.07.2019 08:00:00 13,1 10,4 12,1 16,9 21,3 20,3 7 4 13 7 NNE 1016,0 21 60 0,0
17.07.2019 07:00:00 11,1 9,5 10,7 17,1 21,6 20,3 10 5 17 9 N 1016,4 18 26 0,0
17.07.2019 06:00:00 11,1 9,4 10,3 17,5 22,0 20,3 13 7 18 10 N 1016,5 20 0 0,0
17.07.2019 05:00:00 11,3 9,7 10,0 18,2 22,4 20,3 9 5 14 8 NNE 1016,4 23 0 0,0
17.07.2019 04:00:00 11,9 9,8 10,7 18,9 22,8 20,2 11 6 17 9 N 1016,8 29 0 0,0
17.07.2019 03:00:00 13,2 10,0 12,2 19,7 23,2 20,2 13 7 18 10 NNE 1017,0 34 0 0,0
17.07.2019 02:00:00 14,1 10,1 12,6 20,6 23,6 20,2 11 6 22 12 NNE 1017,3 39 0 0,0
17.07.2019 01:00:00 15,2 10,1 14,2 21,6 24,0 20,2 16 9 29 16 NNE 1016,9 49 0 0,0

tt = Température de l'air
td = dewpoint
tt 5cm = Température de l'air 5cm
tt -5cm = Température de l'air -5cm
tt -20cm = Température de l'air -20cm
tt -100cm = Température de l'air -100cm
ff = Vitesse du vent
fx = gusts
dd = Direction du vent
ppp = reduced air pressure
vv = visibility
sd = Ensoleillement
rr = Quantités de précipitations

stations d'obs. à proximité